Hourly Data Report for October 16, 2015

All times are specified in Local Standard Time (LST). Add 1 hour to adjust for Daylight Saving Time where and when it is observed.

MONCTON INTL A
NEW BRUNSWICK

46°06'44.000" N
64°40'43.000" W
70.70 m
8103201
71705
YQM

Download Data

Hourly Data (October 2015)
Hourly Data Report for October 16, 2015
Temp Definition
°C
Dew Point Temp Definition
°C
Rel Hum Definition
%
Wind Dir Definition
10's deg

Wind Spd Definition
km/h
Visibility Definition
km
Stn Press Definition
kPa
Hmdx Definition


Wind Chill Definition


Weather Definition


TIME
00:00 Legend Double Dagger 3.5 1.9 89 20 10 24.1 100.31     LegendNANA
01:00 Legend Double Dagger 3.4 1.9 90 21 9 24.1 100.34     LegendNANA
02:00 Legend Double Dagger 3.7 2.1 89 19 9 24.1 100.33     Mainly Clear
03:00 Legend Double Dagger 4.9 2.4 84 19 13 24.1 100.28     LegendNANA
04:00 Legend Double Dagger 5.8 2.5 79 18 9 24.1 100.23     LegendNANA
05:00 Legend Double Dagger 3.9 2.4 90 13 12 24.1 100.18     Mostly Cloudy
06:00 Legend Double Dagger 4.9 3.7 92 14 10 24.1 100.16     LegendNANA
07:00 Legend Double Dagger 5.0 4.3 95 17 7 24.1 100.13     LegendNANA
08:00 Legend Double Dagger 7.1 5.9 92 16 8 24.1 100.12     Mostly Cloudy
09:00 Legend Double Dagger 8.9 7.2 89 18 18 24.1 100.11     LegendNANA
10:00 Legend Double Dagger 10.6 7.5 81 17 23 24.1 100.03     LegendNANA
11:00 Legend Double Dagger 12.0 7.4 73 19 36 24.1 99.95     Cloudy
12:00 Legend Double Dagger 12.8 7.5 70 18 33 24.1 99.83     LegendNANA
13:00 Legend Double Dagger 11.9 8.0 77 18 23 24.1 99.72     Rain
14:00 Legend Double Dagger 9.8 8.7 93 18 14 24.1 99.67     Rain
15:00 Legend Double Dagger 9.9 7.3 84 24 26 24.1 99.71     Rain
16:00 Legend Double Dagger 9.7 7.8 88 22 15 24.1 99.68     Rain
17:00 Legend Double Dagger 10.1 7.9 86 23 18 24.1 99.71     Mostly Cloudy
18:00 Legend Double Dagger 8.6 6.7 88 23 16 24.1 99.81     LegendNANA
19:00 Legend Double Dagger 8.3 6.8 90 25 17 24.1 99.91     LegendNANA
20:00 Legend Double Dagger 6.6 4.4 86 26 22 24.1 100.08     Cloudy
21:00 Legend Double Dagger 4.8 1.7 80 29 28 24.1 100.19     LegendNANA
22:00 Legend Double Dagger 2.9 0.6 85 28 21 24.1 100.27     LegendNANA
23:00 Legend Double Dagger 1.8 -0.3 86 28 16 24.1 100.30     Clear

Notes on Data Quality.

Legend

  • E = Estimated
  • M = Missing
  • NA = Not Available
  • ‡ = Partner data that is not subject to review by the National Climate Archives
Date modified: